Theta_e
335 334 332 334 337 336 336 334 335 335 334 333 331 329 328 331 332 333 333 334 334 334 333 332 331 330 331 331 330 329 329 329 329 325 315 309 309 308 310 314 316 317 318 318 318 318 318 318 318 318 319 319 318 320 325 327 327 325 323 323 324 326 326 327 328 329 329 329 329 327 325 322 324 327 324 321 321 324 328 331 331 331 333 334 334
335 334 332 333 335 336 336 335 335 335 335 334 334 330 326 326 327 329 329 331 331 331 330 330 330 329 330 328 328 328 328 329 328 325 314 308 309 308 308 310 312 314 315 315 316 316 316 316 316 316 317 317 317 317 322 325 323 320 319 320 323 325 325 326 327 328 329 329 329 327 323 318 322 327 328 326 318 316 319 322 324 325 325 327 329
335 334 333 335 335 336 336 336 336 335 335 334 334 332 325 322 322 325 325 326 326 326 327 327 326 324 325 326 326 326 327 327 326 324 314 308 309 308 308 308 309 311 312 313 313 313 312 312 312 312 312 313 316 315 317 319 318 316 315 316 318 321 322 322 323 324 325 326 326 322 318 316 322 327 329 326 316 312 313 315 318 320 320 319 320
335 335 335 336 336 336 336 336 336 335 335 333 333 332 328 323 322 322 322 323 322 323 323 322 321 318 321 327 328 327 327 324 323 321 313 309 310 308 308 308 308 309 309 311 310 311 310 310 310 309 309 311 315 314 312 313 313 313 312 311 312 314 314 315 315 317 318 319 317 314 316 315 317 320 322 319 311 310 311 311 314 317 319 319 318
335 334 336 336 336 336 335 336 336 334 333 333 332 332 332 329 325 323 322 322 322 322 322 320 318 315 319 328 330 328 324 320 318 317 312 310 310 308 307 308 308 308 308 309 309 309 309 309 308 309 309 311 315 314 309 309 309 308 308 308 308 309 309 309 310 311 313 313 311 311 315 314 313 313 312 310 308 308 308 308 309 311 313 314 315
335 335 336 336 337 336 336 336 335 333 333 333 331 331 332 331 327 324 323 322 322 322 321 319 316 315 320 328 329 326 321 318 317 316 314 313 311 308 306 307 308 308 308 308 308 308 308 308 308 311 314 315 316 313 308 306 306 306 307 307 307 308 308 308 309 309 310 309 309 309 312 312 311 311 308 307 307 307 307 308 308 308 309 309 309
336 336 336 336 337 336 336 335 334 332 331 331 330 331 332 332 329 325 324 322 322 322 320 318 315 315 322 329 327 324 322 321 319 318 317 314 313 310 307 306 306 307 307 307 306 306 306 306 310 314 317 316 313 310 307 306 306 307 307 307 307 308 308 308 308 308 308 309 309 309 310 310 309 308 307 307 307 308 308 308 308 309 308 308 308
336 337 336 336 336 336 336 336 334 332 331 330 331 331 332 332 329 326 324 322 322 321 319 317 315 318 324 327 325 324 326 325 322 321 320 317 315 312 309 306 305 305 305 305 304 304 304 305 311 315 317 314 310 308 308 308 307 307 307 307 307 307 308 308 308 308 309 309 308 309 309 309 309 308 308 308 308 308 309 309 309 309 309 309 309
336 336 336 337 336 336 336 336 335 333 332 331 331 331 331 331 328 326 324 322 321 320 317 317 319 322 325 325 324 325 327 327 325 324 322 320 317 315 313 309 305 305 304 305 304 304 304 305 311 314 314 313 310 309 310 309 308 307 307 307 307 307 307 308 308 309 309 309 308 309 309 309 309 308 308 308 308 309 309 310 309 309 309 310 310
336 335 336 336 336 336 336 336 335 334 333 331 331 331 331 330 327 325 324 322 321 318 317 320 323 324 325 325 324 325 327 327 326 325 324 322 320 318 315 312 308 305 304 304 304 305 305 307 310 310 310 309 308 308 308 308 307 307 307 307 307 307 307 308 309 309 309 308 308 309 309 311 311 309 309 310 310 310 309 309 309 309 309 309 309
335 336 336 336 336 337 336 335 335 335 333 332 331 331 331 330 327 325 324 322 320 318 319 323 326 326 327 327 325 324 325 325 325 325 324 323 321 319 316 314 311 307 305 304 304 305 305 306 308 308 307 307 307 307 306 307 306 306 307 307 307 307 307 308 308 309 308 308 308 309 313 316 315 313 313 317 316 312 311 311 311 310 309 309 309
335 336 336 336 337 337 336 335 335 335 334 334 332 331 331 330 328 325 324 322 320 319 321 325 326 328 327 327 325 324 324 323 323 323 323 322 321 319 316 315 312 310 306 305 305 304 305 306 306 307 307 307 306 306 306 306 306 306 306 307 307 307 307 307 308 308 308 308 308 310 315 319 320 317 316 320 319 315 313 314 315 314 310 308 308
335 336 337 335 336 336 336 336 336 335 334 334 333 332 331 330 329 326 325 323 322 320 321 324 326 327 327 326 324 324 323 322 322 321 320 320 319 317 316 315 313 311 307 305 304 304 305 305 306 306 306 306 306 306 306 306 306 306 306 306 306 306 307 307 308 308 308 308 310 311 314 317 319 318 319 321 320 317 315 314 316 318 316 312 309
334 335 336 335 335 336 335 336 336 335 335 334 333 332 332 331 330 328 326 324 324 321 321 323 324 325 324 324 323 323 322 322 322 320 319 319 318 317 316 315 313 311 308 305 304 304 304 304 305 305 305 305 305 305 305 305 305 305 305 305 306 306 306 307 307 308 308 309 312 313 316 318 319 320 322 323 322 320 319 319 319 319 320 318 314
333 334 335 334 334 334 335 335 336 335 334 334 334 333 332 332 331 329 328 326 325 323 323 323 323 324 323 323 323 323 323 323 324 322 319 319 318 317 318 315 313 312 309 306 304 304 304 304 304 304 304 304 304 304 304 304 304 304 304 304 305 305 305 306 306 306 307 308 310 313 318 321 322 322 323 322 321 322 322 321 320 319 321 321 318
332 332 333 333 334 334 334 334 334 334 334 334 334 333 332 332 331 330 329 328 326 326 325 325 326 326 324 322 322 322 323 323 325 324 321 320 319 318 319 316 314 312 310 308 305 305 304 304 304 304 304 305 305 305 305 305 305 304 304 304 303 304 304 304 305 305 306 306 308 310 316 321 322 321 321 319 319 321 321 321 320 320 321 321 320
331 332 331 332 333 334 333 333 333 333 334 333 333 333 333 333 332 331 330 329 327 326 326 326 327 327 324 321 321 321 321 323 325 325 322 321 320 319 320 317 314 314 313 312 310 309 309 310 311 312 312 312 311 311 311 311 311 310 308 307 305 304 303 303 304 304 304 305 306 307 313 319 321 321 322 319 319 321 321 321 321 321 321 320 321
331 332 331 331 332 332 333 333 332 333 334 334 334 332 333 333 332 332 331 330 329 328 327 327 327 325 323 322 321 320 320 321 323 325 324 322 321 320 321 318 315 315 316 315 315 315 316 318 318 319 318 318 317 317 317 317 316 316 315 312 310 308 305 305 304 303 303 304 304 304 308 313 315 317 316 312 314 318 320 320 321 321 319 319 321
331 332 329 330 331 330 330 332 332 332 334 335 334 332 333 333 332 332 332 331 329 329 328 327 327 325 324 323 322 321 320 320 321 324 325 324 322 321 321 320 317 317 318 318 318 319 320 321 321 320 320 319 319 319 319 319 319 318 317 316 315 313 310 308 305 304 304 303 303 303 305 305 306 308 306 304 306 311 315 318 321 321 318 319 322
329 331 330 331 331 330 330 330 330 330 333 334 333 331 332 333 332 331 331 331 330 330 329 328 327 326 325 324 324 323 321 321 321 323 326 325 323 322 321 322 320 319 320 320 321 322 322 322 322 321 320 320 319 320 320 319 319 318 318 317 316 315 314 310 306 306 305 304 303 302 303 304 305 305 303 303 303 305 308 311 317 319 315 318 322
326 327 329 332 330 332 333 329 330 329 330 333 332 330 330 331 332 331 331 331 330 330 330 329 328 327 326 325 325 324 323 322 321 323 326 326 324 323 322 323 322 321 322 322 322 323 323 322 322 321 320 320 320 320 320 320 319 318 318 317 316 316 314 311 308 307 307 307 306 305 307 309 311 312 310 307 305 303 303 303 306 309 309 317 320
322 321 322 324 323 327 329 326 329 329 328 330 330 329 328 330 331 330 331 331 330 330 330 330 328 328 327 326 326 325 324 323 323 323 325 326 326 324 322 323 324 322 323 323 323 323 323 323 321 320 320 321 321 320 320 319 319 318 317 317 316 316 314 312 311 310 311 312 312 312 314 316 316 317 317 316 314 310 309 306 304 303 305 310 313
319 317 317 319 317 318 320 319 322 326 327 328 329 329 327 328 329 328 330 331 330 330 331 330 329 329 328 327 327 326 326 325 324 324 324 327 326 325 323 323 324 323 323 324 324 324 323 323 322 321 321 321 321 320 320 319 318 318 317 317 317 316 315 314 314 314 314 315 316 316 317 318 318 318 318 318 318 317 316 314 312 310 307 305 305
316 317 319 322 320 319 320 318 316 319 323 324 326 328 327 326 326 327 329 329 329 329 331 331 330 329 328 328 328 327 327 326 326 324 325 327 326 325 324 323 325 324 323 324 325 325 324 323 323 321 321 321 321 320 320 319 318 318 318 317 317 316 316 316 316 316 316 317 317 317 318 318 318 318 318 317 317 317 317 316 316 316 314 312 310
316 317 321 324 322 321 322 320 316 316 316 318 321 323 326 328 325 326 329 329 328 327 331 332 330 330 329 329 328 328 328 327 327 326 326 327 327 326 324 323 325 325 324 325 325 325 325 324 323 322 321 321 320 320 319 319 318 318 318 318 317 317 317 316 317 317 317 317 317 316 317 317 317 317 317 316 316 316 316 316 316 316 316 315 314
316 315 317 319 319 319 321 320 318 317 316 318 323 321 321 327 326 325 327 329 329 327 329 331 331 331 329 329 329 329 329 328 328 327 327 328 328 327 325 324 325 326 325 325 324 324 324 324 323 323 322 321 320 320 319 319 318 318 318 318 318 318 317 317 317 317 317 317 316 315 315 314 315 316 316 315 315 316 315 316 316 315 314 315 314
315 314 315 315 315 315 317 319 318 317 317 319 325 327 323 323 326 327 327 327 329 328 328 330 331 331 330 330 329 330 330 328 328 328 329 329 328 328 325 324 326 326 326 325 323 322 323 323 324 323 321 320 319 319 319 318 317 317 317 317 317 317 317 316 315 314 314 315 315 313 311 309 310 314 316 315 315 315 315 315 316 315 315 316 315
314 314 314 314 314 314 314 316 317 317 318 317 321 327 325 321 324 329 328 326 329 329 329 330 331 331 330 330 329 330 330 328 329 329 329 330 329 328 326 326 327 326 326 325 323 322 323 324 325 323 321 320 319 318 318 316 316 316 317 316 316 316 315 313 311 310 311 311 310 309 307 306 307 310 312 314 315 315 315 315 315 314 315 316 316
314 313 314 314 313 314 313 314 315 316 317 317 318 319 319 318 320 326 326 325 327 328 330 330 329 330 329 330 329 330 330 329 329 328 329 330 329 329 327 327 327 326 327 325 323 322 323 324 324 323 321 319 319 318 317 316 314 314 315 315 314 313 312 309 308 308 307 307 306 306 305 305 305 305 306 309 311 312 314 314 314 314 316 317 315
314 313 313 313 313 314 313 313 314 314 315 316 316 315 315 314 318 324 324 324 326 326 327 328 330 332 329 328 329 330 331 330 329 328 329 331 329 328 328 328 327 326 326 324 324 324 323 323 323 322 320 319 319 317 316 316 313 312 312 311 311 310 309 307 306 305 305 305 305 304 304 304 304 303 303 303 304 305 307 308 309 310 312 313 308
313 313 313 313 313 314 314 314 314 314 314 314 314 314 315 314 316 320 321 325 332 332 329 326 329 331 328 328 327 329 331 329 329 328 329 332 330 329 328 327 326 325 325 324 324 324 324 323 322 322 321 320 319 316 316 316 313 312 310 308 309 310 308 306 304 304 304 304 304 303 303 302 302 302 301 301 300 300 300 300 301 301 302 304 301
313 313 313 313 313 313 313 314 314 313 313 313 313 313 314 315 314 318 324 326 329 333 332 326 328 329 327 330 330 328 330 329 329 329 329 332 330 329 329 327 326 325 325 325 325 324 324 322 322 322 321 320 318 317 316 315 313 313 310 307 307 308 307 305 304 303 303 303 302 302 302 301 301 300 299 299 298 298 298 297 297 296 297 300 301
313 313 313 313 313 313 313 313 313 313 312 312 313 312 313 314 313 319 328 325 322 328 328 323 327 329 326 331 333 329 330 329 329 330 330 330 330 329 328 328 327 326 326 326 325 324 323 322 322 322 321 320 318 317 316 315 313 312 311 308 306 306 305 304 303 303 302 302 302 301 301 300 300 299 298 298 297 297 296 296 296 295 295 297 298
314 313 313 313 312 313 313 312 312 311 312 312 312 312 312 313 314 316 320 323 327 330 325 321 326 326 322 325 328 328 328 328 328 329 329 329 328 328 328 328 327 327 327 326 325 325 324 322 322 322 321 319 318 317 316 315 313 312 310 307 306 306 305 303 303 302 302 302 301 301 300 300 299 298 297 297 296 296 295 295 295 294 295 294 295
314 313 313 312 312 313 312 312 312 311 312 311 312 312 311 311 313 314 317 324 329 329 327 326 326 326 322 322 324 326 326 326 325 328 330 330 329 328 327 328 327 325 326 326 325 325 323 323 322 322 321 318 318 317 316 315 313 311 309 306 305 305 304 303 303 302 302 301 301 301 300 299 299 298 297 296 295 295 295 294 294 294 294 294 294
314 313 313 312 312 312 312 312 312 312 312 312 312 311 312 312 310 314 317 318 321 325 329 328 324 325 326 325 327 329 329 326 323 325 330 331 330 329 326 327 326 322 323 325 326 324 322 322 322 321 321 318 318 317 315 315 312 309 306 306 305 304 303 302 302 302 301 301 301 300 300 299 298 297 295 295 294 294 294 294 294 294 293 293 293
314 313 313 312 313 312 312 312 312 313 313 313 313 312 312 311 311 316 316 315 322 327 326 325 326 329 329 327 326 326 327 326 324 325 326 327 329 330 327 325 323 322 323 323 323 322 322 322 321 320 320 319 318 316 315 314 311 308 305 305 305 304 303 302 302 301 301 301 301 300 299 298 296 295 294 294 294 294 294 294 293 293 293 293 293
314 314 313 312 312 312 312 312 312 313 313 313 313 313 312 311 313 317 317 318 325 326 324 328 331 330 328 325 324 324 322 322 324 327 326 325 326 326 324 321 322 325 325 322 321 322 322 322 322 321 319 318 318 316 314 313 310 306 304 305 305 304 303 302 301 301 301 300 300 299 298 296 295 294 294 294 294 294 294 293 293 293 293 292 292
314 313 313 313 312 312 312 312 313 312 313 313 313 312 312 312 312 316 319 318 318 320 325 331 330 327 325 323 325 325 323 322 325 328 328 327 324 323 323 322 323 326 323 322 323 323 321 321 321 321 318 317 318 316 313 312 308 304 304 305 304 303 302 301 301 301 301 300 299 298 296 295 294 294 294 294 294 293 293 293 292 292 292 292 292
314 313 313 313 313 313 312 313 313 313 313 312 313 313 312 312 313 320 323 317 315 321 326 329 327 326 325 324 324 323 321 323 326 328 328 327 324 323 325 325 324 324 322 323 324 323 321 321 321 320 318 318 317 315 313 309 305 305 305 305 303 303 302 300 301 301 300 299 298 296 294 294 294 293 293 293 293 293 292 292 292 292 291 291 291
314 314 314 313 313 313 313 313 313 313 313 312 313 313 313 312 314 319 319 318 322 324 325 326 326 324 323 323 323 323 323 321 323 326 326 326 324 324 326 325 324 322 322 323 324 322 321 321 320 319 318 317 315 314 311 305 304 306 305 304 303 302 301 300 301 300 298 297 296 294 293 293 293 293 293 293 292 292 291 291 291 291 291 290 290
315 315 315 314 314 313 312 313 313 313 312 312 313 313 314 312 313 316 315 320 325 322 320 323 324 324 323 324 324 325 325 321 321 323 323 323 324 325 323 320 319 318 319 323 323 321 321 320 320 319 317 315 313 311 306 303 305 306 304 303 303 301 301 301 300 298 297 296 294 293 293 292 293 292 292 292 292 291 291 291 291 290 290 290 290
315 315 315 314 314 313 313 313 312 313 312 312 312 312 313 312 314 316 316 318 320 320 322 324 325 325 325 326 325 325 324 322 322 321 320 322 322 322 320 318 319 320 321 322 322 321 320 319 319 319 316 311 309 306 303 303 305 305 303 302 303 301 299 299 299 297 296 295 293 292 292 292 292 292 292 291 291 291 291 290 290 290 290 290 289
316 315 315 314 314 313 313 313 312 313 312 312 312 313 313 312 313 315 317 319 320 321 325 326 326 326 325 325 323 322 319 318 321 320 319 320 318 318 321 320 320 321 321 321 322 321 319 319 319 317 310 305 305 303 302 304 305 304 302 301 302 301 299 299 298 297 295 293 292 292 292 292 292 291 291 291 290 290 290 290 290 290 289 289 289
316 316 316 315 315 314 313 312 312 312 312 311 312 312 312 312 313 315 319 323 324 323 324 324 325 324 325 323 320 320 317 317 320 319 320 320 317 320 324 322 321 320 320 321 321 320 320 320 316 308 304 303 303 302 303 305 304 303 302 301 300 300 299 299 297 295 293 292 292 291 291 291 291 291 290 290 290 290 290 289 289 289 289 288 288
317 316 315 315 314 314 313 311 311 311 311 311 311 312 312 311 313 317 319 322 323 322 320 320 321 321 321 320 320 320 316 317 321 320 319 318 317 322 324 322 322 320 320 321 321 321 320 315 307 302 302 302 302 302 303 304 303 301 300 300 300 299 297 297 296 294 292 292 291 291 291 291 291 290 290 290 290 289 289 289 289 289 288 288 288
317 316 314 314 313 313 313 312 311 311 311 311 311 312 312 311 314 319 318 317 318 318 318 321 322 321 320 320 321 319 314 316 321 319 317 316 317 321 321 320 321 320 321 322 321 318 313 306 302 301 301 301 301 301 301 302 302 300 299 299 298 297 295 295 295 293 292 292 291 291 290 290 290 290 290 290 289 289 289 289 288 288 288 288 287
316 315 314 314 313 313 312 312 311 310 310 311 311 312 311 311 315 318 316 315 316 316 318 321 321 320 321 320 320 317 314 316 319 317 316 318 319 319 319 320 320 320 321 320 316 310 304 301 300 300 300 300 300 300 300 300 299 299 298 297 297 296 295 295 294 294 293 292 291 291 290 290 290 290 289 289 289 289 289 288 288 288 287 287 287
316 315 314 313 313 312 311 311 311 310 310 310 311 311 311 311 313 314 313 314 317 318 318 319 319 320 320 319 318 316 314 315 317 318 317 316 318 318 319 320 319 320 319 315 308 303 300 299 299 300 299 299 299 300 299 298 298 298 297 297 296 295 295 294 294 294 293 292 291 291 290 290 290 289 289 289 289 289 288 288 288 287 287 287 287
316 315 314 313 312 311 311 311 310 310 309 310 310 310 310 311 311 311 311 314 317 319 320 320 319 319 318 317 317 315 315 315 317 320 317 315 317 319 319 319 318 317 314 307 302 300 299 298 299 300 299 297 298 298 297 297 297 297 297 297 297 296 295 295 294 294 293 292 292 291 290 290 289 289 289 289 289 288 288 288 287 287 287 286 286
316 316 315 313 312 311 311 310 310 310 309 309 310 310 310 311 311 310 311 314 318 320 321 321 320 318 317 316 316 315 315 314 316 319 317 315 318 319 318 318 315 310 306 302 299 299 298 298 299 299 298 297 297 297 297 297 297 298 298 297 297 296 296 296 295 294 293 293 292 291 290 290 289 289 289 289 289 288 288 287 287 287 286 286 286
Wind_Speed
14 15 14 13 14 14 14 13 13 13 15 16 15 14 15 15 15 14 14 14 14 13 13 14 14 14 13 11 11 12 13 14 16 17 18 18 18 18 16 15 13 12 11 10 10 10 10 11 13 14 16 16 17 18 18 17 16 16 16 17 16 16 15 14 14 14 14 14 15 17 18 18 17 18 17 15 13 10 10 11 11 12 14 14 14
14 15 15 14 13 14 13 12 13 13 13 14 14 13 14 14 14 14 14 14 14 13 13 13 13 13 12 10 10 11 12 13 15 16 17 18 19 18 17 16 14 13 12 11 11 11 11 11 13 14 15 15 16 17 17 17 16 16 17 17 17 16 15 15 14 14 14 13 13 14 17 19 20 20 19 18 17 15 11 9 8 9 12 12 11
14 14 14 14 13 14 14 13 12 12 12 13 14 13 13 14 14 14 13 13 13 12 13 13 13 12 12 11 11 11 12 13 14 15 16 17 18 18 18 16 15 14 13 12 11 11 10 11 12 14 14 14 15 16 15 15 15 15 16 16 16 16 15 14 14 13 12 12 13 13 16 19 21 20 19 18 19 21 18 14 9 8 9 9 10
14 13 14 13 13 13 14 14 13 12 12 12 13 13 13 13 13 13 12 12 11 11 12 12 12 12 12 12 12 12 12 13 13 14 16 17 18 18 18 18 16 15 13 12 11 11 10 10 12 13 14 14 15 16 16 15 15 15 15 15 15 14 14 13 13 13 12 12 12 14 17 18 19 19 18 17 19 21 21 18 15 12 10 9 10
14 13 14 13 13 12 13 13 13 12 12 12 13 13 13 13 13 12 11 10 10 10 10 12 12 11 11 11 12 13 13 14 14 16 17 18 18 18 18 18 17 16 14 13 12 11 11 11 12 14 15 15 16 16 17 17 16 16 16 16 16 15 15 15 15 14 13 13 14 16 18 16 17 18 18 19 19 20 19 18 18 16 14 13 12
14 14 13 12 12 11 11 12 12 12 11 12 12 12 12 12 12 11 10 9 9 9 10 11 12 11 12 12 12 13 14 16 17 18 18 18 19 19 19 19 17 16 15 14 13 12 12 12 13 15 16 16 17 17 17 17 17 17 18 18 18 18 18 18 17 17 16 16 17 19 19 17 17 19 19 20 20 20 19 18 18 18 17 16 15
14 13 13 12 11 10 11 12 11 11 10 11 11 12 12 12 11 11 10 9 8 8 10 11 11 12 13 12 12 14 16 17 18 18 18 18 18 19 19 19 18 16 15 15 14 14 14 14 15 16 17 17 17 17 17 18 18 18 18 19 19 19 19 19 19 19 18 18 20 21 21 21 21 22 21 20 21 20 20 19 19 19 18 17 16
15 13 12 12 11 10 11 11 10 10 9 9 10 11 12 10 10 10 10 9 8 9 10 10 11 13 13 12 12 14 16 17 18 19 18 17 18 18 19 18 18 17 16 15 15 15 15 15 16 17 17 18 18 18 18 18 18 18 19 19 19 20 20 19 19 19 19 20 21 21 22 22 23 23 21 20 21 21 21 21 21 21 20 19 18
17 14 12 12 11 11 11 10 9 9 9 8 9 11 11 10 9 10 9 9 8 8 9 10 12 14 14 13 13 14 15 16 17 18 18 18 17 17 18 18 17 17 16 15 15 16 16 16 16 17 18 18 18 19 19 18 18 18 19 19 19 20 19 19 19 19 20 21 21 21 22 22 23 23 21 20 21 22 22 22 22 22 21 21 20
18 16 13 11 10 10 11 10 9 9 9 8 8 9 10 9 9 9 9 9 8 8 9 11 14 15 14 13 13 13 14 15 16 16 16 17 17 17 17 17 17 16 15 15 15 15 16 16 16 17 18 18 18 18 18 18 18 18 18 19 19 19 19 19 18 19 20 20 20 21 22 22 22 22 21 20 21 22 22 22 22 22 21 21 21
18 16 13 12 10 10 10 9 9 8 8 8 8 9 9 9 9 9 9 9 8 9 10 12 14 14 13 12 12 13 13 14 14 14 14 15 16 17 17 17 16 15 15 14 14 15 15 15 15 16 17 18 18 18 18 18 18 18 18 18 18 19 19 18 18 19 19 19 20 21 21 21 22 21 21 20 21 21 21 22 21 21 22 21 21
18 16 14 12 11 11 11 9 9 8 7 7 8 8 8 8 9 9 9 9 8 9 10 12 13 13 12 11 12 12 13 13 13 13 13 14 15 16 16 16 15 15 14 14 14 14 14 14 14 16 17 17 17 17 17 17 17 17 17 18 18 18 18 18 18 18 18 18 19 20 20 21 21 21 21 20 20 21 21 21 21 21 21 22 21
18 17 14 13 11 11 11 10 10 9 7 7 7 7 7 6 7 9 9 9 9 9 10 11 12 12 11 10 10 11 12 12 12 12 13 13 14 15 15 16 15 15 14 14 14 14 14 14 14 16 17 17 17 17 17 17 17 17 17 17 17 18 17 17 17 17 17 18 18 19 21 22 21 21 20 20 20 20 20 21 21 20 20 21 22
18 18 15 13 12 11 11 10 10 9 7 7 7 7 7 6 6 7 8 8 9 8 9 10 11 11 10 9 9 9 10 11 11 12 13 13 14 14 15 16 16 15 14 14 14 14 15 15 15 16 16 17 17 17 17 17 17 17 17 17 17 17 16 16 16 17 17 18 18 19 22 22 21 21 20 19 19 19 20 20 20 20 20 20 22
18 18 16 14 13 11 11 11 10 9 8 8 7 7 7 7 6 6 7 7 8 8 8 9 9 9 9 8 8 8 9 10 11 12 13 14 14 14 15 16 16 16 15 15 15 15 15 15 15 16 16 17 17 17 17 17 17 17 17 17 17 16 16 16 16 17 17 18 19 20 22 21 20 20 17 17 19 20 20 20 20 21 21 21 23
19 18 16 15 13 13 12 11 10 9 9 9 8 6 7 8 6 5 6 7 7 7 7 8 9 8 7 7 7 6 7 9 10 11 11 13 13 14 15 15 16 16 16 16 16 16 16 16 17 17 17 18 18 18 17 17 17 17 17 17 16 16 16 15 16 17 17 18 18 19 20 19 19 17 16 18 20 20 20 21 22 23 22 22 24
20 18 17 16 15 14 13 12 11 11 10 10 9 7 7 8 7 5 6 7 6 6 7 8 8 7 6 6 6 5 6 7 8 9 9 11 12 13 14 15 16 16 17 17 17 17 18 18 18 18 18 18 18 18 18 18 17 17 17 16 16 15 15 14 15 16 16 16 17 18 19 18 17 17 17 18 20 20 20 20 21 22 21 20 21
21 20 19 17 17 16 15 14 14 13 11 11 10 9 9 9 8 7 7 7 6 6 7 7 8 7 6 5 5 5 5 5 6 7 8 9 11 12 13 14 14 15 16 16 16 16 17 17 18 18 17 17 17 17 17 17 17 17 17 16 15 14 14 13 14 15 14 14 15 16 17 16 16 16 15 15 17 18 19 19 19 19 18 19 19
21 20 20 19 18 18 17 17 15 15 13 13 12 10 10 10 9 8 8 8 6 7 7 7 6 6 6 5 5 4 4 4 5 6 6 7 9 10 12 13 13 13 14 14 14 15 15 16 16 17 16 16 16 17 17 17 17 17 16 15 14 13 12 13 13 13 12 13 14 16 15 15 16 16 16 15 15 15 16 17 18 17 17 18 18
21 21 19 18 18 18 18 18 16 16 16 14 13 12 12 12 10 9 9 8 7 7 8 8 7 5 5 4 4 4 3 3 4 4 4 5 7 8 9 11 11 12 12 12 13 13 14 14 15 15 15 15 15 15 16 16 16 16 15 14 13 12 12 12 12 12 12 13 14 16 15 15 16 16 16 15 13 13 13 13 14 14 14 17 17
21 21 20 19 20 19 19 19 18 18 18 17 15 14 14 13 12 11 11 10 9 8 8 9 8 6 5 4 4 4 3 2 3 3 3 4 5 6 7 9 10 10 11 11 11 12 12 13 13 14 14 14 14 14 14 15 15 15 14 13 11 11 11 12 11 11 11 12 14 15 15 15 16 17 16 15 13 12 11 10 10 9 10 14 14
21 21 21 21 21 22 22 21 20 20 20 19 17 16 15 15 14 13 12 11 10 10 10 10 10 8 6 6 5 5 4 3 3 3 3 3 3 4 6 8 9 9 9 10 10 10 10 11 12 12 12 12 12 13 13 14 14 14 13 11 11 11 11 11 10 11 12 12 15 16 15 16 17 18 18 17 16 14 13 11 10 8 7 7 7
20 19 18 19 18 19 20 19 20 22 22 20 19 18 17 17 16 15 14 13 12 12 13 12 12 10 8 8 7 6 5 4 4 4 3 3 3 4 5 7 8 8 8 8 8 8 9 10 12 12 11 11 11 12 12 13 14 12 11 11 11 12 11 11 11 11 12 14 16 17 17 17 17 17 17 17 17 16 16 15 14 12 9 6 5
17 17 17 17 17 17 16 15 16 20 21 21 21 21 20 19 18 17 16 15 14 14 14 14 14 12 10 10 9 8 7 6 5 5 4 4 3 4 5 7 8 8 8 7 7 7 7 9 12 12 11 10 10 11 12 12 13 11 10 10 11 11 10 10 11 12 13 14 15 15 16 16 17 17 17 16 17 17 17 18 17 17 16 13 11
16 17 18 19 20 18 17 17 16 16 16 17 19 21 22 22 20 19 19 18 16 17 16 16 16 14 12 12 10 9 8 7 7 7 6 5 4 4 5 7 8 8 7 7 6 6 6 8 9 10 10 10 10 10 10 10 11 10 9 9 10 10 10 10 10 10 11 12 13 12 12 15 16 16 15 16 17 18 19 19 19 19 19 18 17
17 17 18 19 20 19 19 19 18 16 15 14 16 17 20 22 21 20 21 21 19 18 18 18 18 15 14 13 12 11 11 9 8 9 7 6 6 5 6 7 8 8 8 7 5 5 5 6 6 6 8 9 9 8 8 9 8 8 8 8 8 8 9 9 8 8 9 10 10 10 10 12 15 17 16 16 18 19 20 20 19 19 20 19 18
18 18 17 18 18 18 18 19 19 18 17 17 17 17 18 20 21 20 21 21 21 20 20 20 19 17 15 15 13 12 12 11 9 11 9 8 7 7 7 8 8 7 7 6 6 6 6 6 5 5 6 7 7 7 7 8 8 7 7 7 7 7 7 8 8 8 8 8 8 9 10 11 14 18 18 17 18 18 19 18 18 18 19 19 16
19 19 19 18 18 18 18 18 19 19 18 19 19 22 21 21 23 23 23 22 22 22 21 21 20 19 17 16 14 13 14 12 10 11 10 10 10 8 8 9 8 7 7 5 5 6 6 5 5 4 5 8 8 8 8 8 7 7 7 7 6 6 7 9 9 9 9 9 9 10 12 12 13 16 17 18 18 16 17 17 17 16 17 16 12
20 20 19 18 18 18 17 17 18 19 19 19 20 23 22 22 23 25 24 22 23 22 22 22 21 20 19 18 15 15 15 12 11 11 10 13 12 9 9 9 8 7 7 4 3 2 3 4 4 1 5 7 8 9 9 8 8 7 7 7 7 8 9 10 11 11 12 12 13 14 14 14 14 15 15 16 16 15 16 16 16 15 16 13 7
20 20 19 18 17 17 17 17 17 18 19 20 21 22 22 21 21 23 23 20 20 20 21 22 19 19 19 18 17 17 16 12 12 11 12 16 13 9 9 9 8 7 6 2 2 3 1 2 3 1 4 4 6 8 7 7 8 8 7 7 8 9 10 12 13 14 15 15 15 15 15 14 14 14 14 14 13 12 13 12 12 12 11 8 7
20 20 19 19 18 18 17 17 18 18 19 19 20 21 22 21 21 22 21 19 20 21 22 19 19 20 19 19 18 19 18 14 13 12 15 19 14 10 11 11 9 6 5 4 5 6 5 3 3 3 1 2 5 7 5 6 8 8 7 9 9 9 11 12 14 15 15 15 15 14 14 14 14 13 13 13 12 11 12 11 9 8 7 7 10
20 20 20 20 19 18 18 18 18 19 20 19 20 22 22 23 22 20 20 21 22 24 24 19 19 20 18 20 20 18 18 16 15 13 15 20 16 11 13 14 11 7 7 10 10 8 9 6 6 8 4 2 5 6 4 6 7 7 6 8 9 9 11 13 14 14 14 14 13 13 13 13 13 13 13 13 12 12 12 11 10 9 9 11 13
19 20 20 21 20 19 19 19 20 20 21 20 20 22 23 24 22 21 24 24 21 24 24 19 20 20 18 22 22 19 20 19 17 15 15 20 17 12 14 16 11 8 12 14 11 9 11 9 10 11 5 1 4 5 3 4 4 5 6 7 8 9 12 12 12 12 12 12 12 12 12 11 11 11 11 12 11 11 11 11 11 10 10 11 11
19 21 22 21 20 20 20 20 21 21 20 20 19 20 22 24 23 23 25 22 20 24 23 18 21 21 19 22 23 21 21 21 20 17 17 19 18 13 14 16 10 10 16 14 11 12 12 12 13 13 6 1 2 3 1 2 3 4 4 6 8 9 11 10 10 10 10 10 10 10 10 9 10 10 10 11 10 11 11 11 11 11 11 11 10
21 22 22 21 21 21 21 21 21 21 20 20 20 20 21 23 23 23 23 22 24 25 22 18 20 20 18 17 18 19 21 21 21 20 20 20 18 16 17 17 12 12 16 15 16 15 12 15 16 13 6 2 0 1 0 1 2 2 3 5 7 8 9 8 8 8 7 8 8 8 8 8 9 9 10 10 10 11 11 11 10 10 10 10 10
22 22 22 22 23 23 22 22 22 22 21 20 20 20 20 22 23 23 24 23 23 23 22 20 19 20 19 16 15 17 18 17 18 20 22 21 19 20 20 20 16 13 15 17 19 16 15 17 17 10 4 2 1 0 1 1 1 1 2 4 6 8 7 6 6 5 6 6 6 6 7 7 8 9 9 9 10 11 11 11 10 10 10 10 10
23 23 24 24 24 24 24 24 23 23 22 21 20 20 21 22 22 23 23 20 21 23 23 21 20 21 20 17 17 19 21 18 17 18 20 21 21 21 19 18 17 17 17 17 18 20 20 20 19 11 5 3 1 2 2 3 2 1 3 5 6 7 5 4 3 3 4 4 5 6 7 7 8 9 10 10 11 11 11 11 11 11 10 10 10
25 26 26 26 26 26 26 26 25 24 23 22 21 21 21 21 22 24 23 20 24 25 22 22 23 23 21 20 20 22 23 21 20 20 20 23 23 22 19 16 18 21 19 16 18 22 22 21 17 12 6 3 3 5 4 5 3 1 4 5 5 5 3 2 1 2 3 4 5 6 7 8 8 9 10 10 11 11 11 11 11 10 10 10 10
27 27 27 28 28 27 27 27 27 25 24 23 21 21 21 22 22 23 23 22 24 23 22 26 27 24 23 22 21 20 20 18 20 22 22 23 22 21 21 18 18 21 18 16 20 24 23 20 14 9 8 6 6 6 6 6 4 4 4 5 6 4 3 2 1 2 3 5 6 7 7 8 8 9 10 10 10 10 10 10 10 10 10 10 10
29 29 29 29 29 29 29 28 28 27 26 24 23 23 22 23 22 24 26 24 21 21 25 29 29 25 23 23 23 22 22 20 20 21 21 21 19 18 21 21 20 21 19 18 22 23 23 20 13 10 10 9 10 10 9 7 7 8 6 6 6 5 5 3 2 3 5 6 6 7 7 7 8 9 9 9 10 10 10 10 10 10 11 10 10
30 30 30 30 30 31 31 30 29 29 27 26 24 24 23 23 24 27 28 23 22 25 27 29 28 24 23 26 25 23 24 23 23 26 24 22 22 22 23 23 21 21 19 19 23 24 22 18 14 12 11 12 14 14 12 10 9 10 9 9 8 7 6 4 4 5 6 6 7 7 7 8 8 9 9 9 10 10 10 10 10 10 10 10 10
31 31 30 30 31 32 33 32 30 30 29 27 26 25 24 23 23 23 23 23 27 28 27 28 28 25 26 27 25 23 24 24 24 29 29 27 27 26 24 22 21 22 21 20 23 24 21 18 16 15 13 14 14 15 15 12 10 9 8 9 10 9 7 6 5 6 6 7 7 7 7 7 8 8 9 9 10 10 10 10 10 9 9 9 9
32 32 31 31 32 33 34 33 32 32 31 29 27 26 24 22 22 22 21 22 26 27 25 28 30 28 27 27 25 25 26 24 24 27 28 28 27 26 24 21 21 25 24 23 25 23 21 19 18 17 16 16 15 15 15 13 11 10 9 9 10 9 8 7 7 7 7 7 7 7 8 8 8 9 9 10 9 9 9 9 9 9 9 9 9
33 34 33 33 33 32 34 35 34 33 32 31 29 27 25 23 23 22 21 21 21 22 25 28 30 29 27 27 27 28 27 26 28 26 24 26 24 24 26 25 24 25 24 24 25 24 22 20 19 18 17 17 17 16 16 14 12 11 9 9 10 9 8 8 8 7 8 8 8 8 8 8 9 9 9 9 9 9 9 9 8 8 8 8 8
33 34 34 34 33 32 34 35 35 35 33 32 30 28 26 25 25 23 22 24 24 26 28 31 32 31 29 28 29 29 27 25 30 27 26 26 22 23 29 31 25 22 23 24 24 23 21 20 20 18 16 14 14 16 18 16 13 11 9 8 8 8 7 6 7 8 8 8 8 9 9 9 9 9 9 8 8 8 8 8 8 8 8 7 7
30 31 32 34 34 34 34 35 36 36 34 32 31 29 27 27 27 26 25 28 31 32 31 32 34 33 30 29 29 29 26 26 29 27 27 26 22 25 29 28 23 21 23 24 23 22 21 21 19 18 16 13 12 14 17 16 14 12 10 7 5 5 5 6 8 8 9 9 9 9 9 9 9 9 8 8 8 8 8 8 8 8 7 7 6
25 27 30 33 34 35 35 35 36 36 35 33 32 30 29 29 28 28 29 30 31 31 29 30 30 29 29 29 28 28 26 28 31 26 25 24 24 26 26 24 23 23 23 23 22 21 21 21 20 19 17 15 14 14 14 14 12 11 10 7 5 5 5 6 7 8 9 9 9 9 9 9 9 9 8 8 8 8 8 8 8 8 7 6 6
21 24 27 30 32 34 34 35 36 36 35 34 33 31 31 30 30 32 31 30 29 27 26 29 30 29 28 27 26 26 25 29 32 26 25 26 26 26 25 25 24 23 23 22 21 22 23 23 22 21 18 15 15 14 13 12 10 9 9 7 6 6 6 6 6 7 7 8 9 9 9 8 9 9 8 7 8 8 8 8 7 7 7 7 7
19 22 24 26 29 32 33 35 36 36 35 34 33 33 32 31 31 33 31 29 30 28 27 29 31 30 28 27 26 24 24 27 31 29 26 26 27 26 25 25 24 23 23 22 23 24 24 24 23 22 20 17 16 15 13 11 9 8 7 6 5 6 6 6 7 7 7 7 8 9 8 8 8 9 9 8 8 8 8 8 7 7 7 8 8
17 19 21 24 27 30 32 34 35 35 35 34 34 33 32 32 31 31 29 29 30 31 30 30 30 28 27 27 25 23 24 27 30 30 27 26 27 27 25 25 24 23 24 26 27 26 25 24 22 21 20 19 18 17 14 11 10 9 7 5 4 4 5 6 7 7 6 6 6 7 8 8 8 9 9 9 8 9 9 8 8 7 8 9 9
15 18 21 23 26 28 30 32 34 34 34 34 34 34 33 32 31 30 29 29 30 31 33 33 30 27 27 27 24 24 27 27 29 30 28 27 28 27 26 25 24 25 27 28 27 26 25 24 22 21 21 19 18 17 16 14 11 10 8 5 3 3 3 4 6 6 6 6 6 6 7 8 8 8 9 10 9 9 9 8 8 9 9 10 10
Wind_Direction
139 137 135 131 122 118 119 117 106 102 107 114 121 121 122 122 116 109 105 101 96 91 84 79 75 72 72 67 60 57 57 56 55 56 57 60 62 65 69 74 79 81 84 81 79 76 73 73 72 73 74 75 78 81 82 81 78 74 71 72 74 73 73 73 73 71 69 67 65 64 56 55 63 62 59 57 55 64 71 68 63 64 67 64 63
144 142 140 137 129 123 122 117 107 107 107 108 113 117 121 123 120 114 109 104 99 94 88 83 77 74 74 68 60 56 55 55 54 55 57 61 64 65 71 74 79 81 84 83 80 76 72 70 71 73 74 75 76 81 82 80 76 71 68 69 71 71 70 70 70 68 66 65 60 54 48 56 70 68 62 59 55 59 64 67 61 58 61 58 57
148 145 143 139 133 128 126 122 113 112 110 108 108 111 116 121 122 117 112 105 99 92 86 81 76 73 71 66 60 57 54 53 52 54 59 63 65 66 72 76 80 82 83 83 81 78 74 70 71 74 74 76 77 79 80 78 73 68 66 66 67 69 69 68 68 66 62 60 56 50 53 65 73 72 68 64 59 59 60 61 61 57 57 54 52
150 148 146 141 135 132 129 124 119 119 114 110 107 108 113 118 120 115 112 106 98 88 79 71 65 65 70 71 66 60 52 51 50 56 63 66 67 68 72 77 81 84 85 83 81 79 76 72 72 75 76 77 78 79 78 76 73 69 67 65 65 66 65 65 64 63 60 56 56 54 60 69 70 72 72 67 61 60 61 60 61 61 59 54 50
151 152 148 140 136 133 127 122 122 123 117 112 107 110 114 117 118 116 114 106 96 82 69 60 55 62 75 80 71 58 51 54 59 63 67 68 68 70 74 77 81 85 86 85 83 81 79 75 74 78 81 81 81 79 76 74 73 71 68 67 65 65 63 62 61 60 59 57 57 59 65 67 64 66 66 64 60 59 61 60 61 62 62 59 56
152 151 145 138 136 133 126 121 122 122 118 115 109 110 115 118 121 121 117 106 96 79 63 55 51 66 83 85 73 63 61 65 69 71 71 70 70 72 76 78 81 84 86 87 84 82 80 77 76 81 84 84 84 80 75 73 73 72 70 68 67 66 64 62 62 61 59 60 62 63 66 65 62 64 62 60 59 59 60 61 62 61 62 59 57
154 151 144 140 140 139 130 123 122 121 119 116 113 112 112 115 120 121 117 109 97 76 58 51 51 72 90 88 78 72 72 72 73 74 72 72 73 74 77 80 82 84 86 88 86 84 82 79 80 84 87 87 85 83 78 76 74 72 70 69 67 65 64 62 61 61 59 60 64 64 64 64 65 67 63 60 60 60 61 61 61 61 60 59 56
154 154 150 147 149 145 132 128 127 124 120 114 114 114 112 111 113 114 112 106 92 71 56 54 60 79 93 90 83 80 76 74 74 74 72 73 74 75 77 81 84 86 88 89 90 88 85 83 85 88 88 88 86 84 81 78 74 72 71 69 67 65 64 62 60 59 59 61 63 62 62 63 65 66 64 62 61 60 59 58 59 59 59 59 57
156 159 160 156 154 148 137 137 135 129 122 116 115 114 115 113 108 107 103 98 85 69 61 66 75 85 93 90 85 82 79 75 73 72 70 71 72 73 74 78 82 86 88 90 92 91 90 88 89 90 90 89 87 85 81 78 75 73 72 70 68 67 65 63 62 61 61 62 62 62 62 62 63 64 63 61 61 60 59 59 58 58 57 57 56
158 161 163 161 158 151 144 145 142 135 129 123 119 116 117 116 109 104 100 96 85 75 73 80 86 90 93 89 82 80 80 75 72 70 67 67 69 70 71 73 78 83 88 90 92 93 92 91 92 92 91 91 87 85 82 79 77 74 73 71 70 68 66 64 64 63 63 63 62 62 62 62 62 62 61 58 59 60 60 60 61 60 59 57 56
160 162 163 163 164 159 151 152 152 144 138 132 125 121 121 119 113 106 103 100 90 84 86 91 93 93 92 86 79 76 76 72 70 68 66 66 66 68 70 72 75 80 86 89 92 93 93 93 94 93 92 90 87 84 81 78 75 73 71 70 69 67 66 64 64 65 65 64 63 63 61 61 61 60 60 57 56 56 56 57 60 63 63 60 57
163 161 162 164 167 165 156 159 162 153 148 140 130 127 127 122 117 114 110 104 96 92 95 98 98 96 91 84 77 73 73 71 69 68 67 67 66 66 70 75 77 79 83 87 90 91 93 92 90 90 88 86 83 81 78 76 73 71 69 67 67 65 63 62 62 63 65 67 65 65 64 63 60 58 58 58 56 54 54 54 54 59 63 62 59
166 162 165 167 167 167 159 167 171 159 155 149 140 135 132 126 121 120 116 108 98 94 97 98 98 96 91 83 75 74 73 71 70 70 69 68 67 67 72 77 80 82 84 86 88 90 90 88 87 87 86 85 83 81 78 75 72 70 68 66 65 64 61 60 60 61 63 65 64 64 64 63 61 57 56 56 55 55 54 52 52 52 54 56 56
170 166 169 171 169 168 165 175 175 162 163 161 151 144 141 140 128 118 115 110 101 96 97 94 95 94 90 84 78 76 75 73 72 71 71 69 67 69 74 80 83 85 87 89 90 91 90 89 89 88 87 86 83 81 78 74 72 69 66 65 64 62 59 56 57 59 58 59 59 60 61 59 56 55 54 52 50 51 53 51 50 50 51 51 48
177 171 171 175 175 174 175 179 174 167 175 171 162 159 156 153 137 121 119 114 108 105 103 99 100 98 93 90 84 80 77 75 74 71 69 67 67 70 75 81 85 87 88 91 93 93 93 92 90 88 87 85 82 79 76 73 70 67 64 62 60 59 56 53 54 56 55 57 59 61 64 61 56 56 51 50 51 46 47 46 44 46 48 46 42
181 177 175 179 180 180 182 182 179 180 182 175 172 178 171 165 151 138 134 125 122 121 119 114 112 109 98 90 88 81 76 76 77 73 67 66 66 70 75 80 87 88 89 90 91 92 91 90 87 85 84 81 80 77 75 72 69 66 63 60 58 56 54 51 52 54 55 58 63 65 69 68 63 58 50 54 59 51 44 41 39 43 44 39 38
182 181 180 183 186 187 187 187 189 190 190 183 183 190 182 175 165 158 150 140 143 144 140 132 127 119 99 87 88 82 78 80 80 74 68 67 66 70 75 80 88 91 91 90 90 90 89 87 85 82 81 80 78 76 74 70 67 64 61 58 56 55 54 51 52 55 57 60 64 66 70 71 68 62 56 56 60 56 47 43 42 43 43 39 40
184 186 185 187 190 194 193 193 196 194 195 193 189 193 191 188 180 175 168 159 163 164 158 145 137 123 103 91 86 82 84 87 83 77 71 68 66 71 75 80 89 91 91 91 90 90 89 87 85 82 80 79 78 76 73 69 66 62 59 56 54 54 54 52 53 56 59 61 62 64 67 68 67 64 63 62 64 64 56 50 47 45 44 44 46
186 191 191 191 193 198 198 197 200 199 198 195 193 198 198 197 196 191 183 174 177 178 172 156 144 128 114 104 94 88 89 93 90 86 81 71 68 72 79 84 89 90 89 90 91 92 91 89 86 83 81 80 78 75 71 67 63 59 56 53 51 50 52 51 54 57 57 60 60 61 60 57 58 57 61 64 66 69 68 62 54 50 48 47 48
188 194 195 196 198 199 201 201 203 206 204 200 200 204 203 204 206 203 196 189 191 191 183 170 160 147 133 125 119 112 106 112 109 105 101 88 78 78 87 92 94 94 90 91 93 94 93 89 86 84 83 82 78 74 68 64 59 55 52 49 48 46 49 53 53 55 55 58 59 59 57 54 54 54 57 59 57 56 62 68 65 58 53 50 49
192 196 197 200 203 201 204 204 203 209 209 206 207 208 208 210 211 208 206 203 201 201 195 185 176 169 161 157 157 151 153 151 136 132 125 112 93 87 99 102 102 102 95 95 97 96 93 86 83 83 84 83 78 71 65 61 56 52 50 49 48 47 53 56 55 55 54 56 60 60 57 56 58 58 57 56 55 49 45 53 64 61 59 58 53
196 198 199 201 204 203 207 207 205 211 212 211 213 212 212 214 215 214 213 211 206 204 202 197 189 185 182 182 185 178 180 181 168 163 148 136 116 100 113 112 107 108 103 100 100 99 94 88 84 83 84 83 77 69 62 57 53 50 51 51 50 54 60 61 59 57 55 54 59 61 55 55 60 60 60 59 56 52 48 46 51 55 63 67 53
200 200 202 202 203 202 207 208 207 211 212 214 216 216 215 215 217 219 216 214 213 209 206 205 197 196 198 198 199 193 194 195 196 192 170 163 145 127 133 128 118 116 113 106 103 99 95 91 85 84 85 84 75 65 59 54 51 50 51 53 54 59 64 64 62 60 59 56 59 61 58 56 57 57 58 59 56 53 53 49 47 49 51 54 45
208 204 205 208 210 208 209 215 212 209 210 214 217 219 219 219 219 219 220 218 218 215 213 209 200 202 207 206 205 201 203 201 209 207 176 176 169 152 153 143 132 126 123 119 112 108 108 100 89 86 84 77 68 62 58 52 49 48 49 55 60 64 66 64 63 61 60 59 59 61 64 62 56 56 54 52 55 54 50 47 47 47 45 45 48
218 214 211 212 217 215 215 222 224 216 215 215 214 216 217 221 222 219 220 220 223 220 216 210 202 206 210 211 210 205 209 207 210 208 185 185 181 168 171 157 145 139 132 130 121 124 129 111 95 88 82 72 65 60 54 47 44 44 49 58 64 66 64 62 61 59 60 59 58 56 61 66 64 64 60 55 57 54 50 48 49 49 44 40 44
226 226 222 221 224 222 219 222 228 226 223 219 214 215 213 216 222 222 219 218 223 224 219 213 206 209 214 215 213 210 210 209 207 199 188 191 188 182 185 170 158 151 138 130 110 104 106 91 78 63 68 64 56 54 42 39 42 45 52 61 65 65 61 57 51 49 52 53 52 48 51 64 71 70 66 63 62 56 52 52 52 48 42 38 38
233 236 234 234 235 232 228 226 230 229 223 220 217 221 222 219 219 219 220 218 221 225 223 218 214 217 220 218 216 216 212 207 203 192 190 199 194 189 190 181 169 161 151 132 97 83 80 80 69 39 37 28 29 44 40 40 46 50 57 64 64 61 55 46 37 38 47 49 49 51 56 65 72 73 74 71 68 64 60 57 53 48 46 45 40
237 239 239 239 239 238 235 228 230 231 228 224 219 222 229 228 219 216 221 221 221 225 226 222 220 221 222 222 219 215 209 204 201 195 199 203 194 190 189 184 174 172 173 139 94 82 88 111 111 64 18 2 15 37 35 40 55 62 64 65 57 48 45 41 41 51 63 67 67 65 67 71 72 76 82 79 76 76 72 67 59 51 52 53 50
238 240 241 241 240 239 236 230 228 228 229 228 227 228 230 230 220 218 224 222 222 224 225 226 225 225 225 223 222 212 203 202 205 206 213 207 191 186 190 188 183 178 176 137 98 87 91 137 148 53 0 2 14 25 26 32 53 73 70 60 50 50 49 50 61 73 77 77 76 73 70 70 69 71 74 76 80 82 78 77 72 62 59 58 45
242 244 244 245 244 241 240 237 232 227 226 227 232 233 231 231 221 221 226 222 229 232 227 228 225 228 231 226 223 213 204 209 213 209 212 208 190 184 195 193 192 180 168 139 148 188 183 167 189 297 352 356 1 23 37 25 40 69 73 68 60 56 53 59 74 79 78 76 73 72 69 66 64 64 65 67 72 72 69 77 79 70 65 49 7
244 245 246 247 245 244 243 242 240 235 231 229 233 235 235 235 225 224 225 216 226 235 232 232 221 224 234 230 225 216 213 218 218 214 212 210 198 192 203 205 212 198 179 193 190 208 224 202 205 216 220 295 351 30 47 12 41 68 65 76 72 56 57 68 78 78 76 75 71 68 65 61 57 55 54 54 52 50 53 60 64 58 49 34 22
247 248 248 247 245 244 244 244 245 245 243 238 235 236 236 237 231 224 224 218 218 222 229 236 223 219 225 220 217 216 220 222 218 218 212 212 211 204 208 209 211 217 215 204 192 209 224 214 203 192 188 274 2 37 38 12 52 71 51 70 69 55 64 74 78 76 74 71 67 64 59 56 52 47 43 42 40 37 40 40 40 36 31 38 40
250 250 248 246 244 241 241 243 245 247 249 246 239 236 235 237 235 220 218 224 222 221 229 234 219 215 218 216 219 222 222 220 214 213 211 215 219 217 217 205 195 217 215 195 190 219 230 224 202 184 183 303 20 45 44 11 41 68 55 61 57 58 70 77 77 74 72 66 62 57 53 51 46 41 36 35 33 31 31 27 26 21 17 22 28
245 245 244 244 242 240 239 240 242 244 245 246 242 237 235 237 236 227 221 221 221 226 233 227 212 218 227 222 224 225 223 222 214 210 216 217 215 221 218 201 194 221 208 200 221 232 235 232 203 181 177 186 36 44 49 353 27 61 62 57 57 67 76 79 78 73 68 62 56 50 47 43 37 31 29 27 24 22 22 20 17 12 9 4 4
243 242 241 241 240 239 239 239 240 241 240 241 241 238 239 238 235 232 225 216 216 222 227 222 215 224 231 220 221 221 221 228 218 207 210 209 213 224 218 208 218 223 211 220 230 223 232 230 203 185 186 180 56 42 119 337 32 56 54 59 67 80 85 80 76 72 64 55 47 41 37 30 26 21 20 19 16 15 14 12 10 6 3 358 353
247 245 241 238 238 237 237 238 237 238 239 239 240 239 238 239 237 231 226 222 219 217 216 222 227 227 217 207 215 212 210 224 220 206 205 207 215 220 210 210 225 227 221 223 220 224 238 220 192 188 218 194 176 154 170 236 323 81 85 86 87 89 87 80 75 64 54 46 29 26 24 16 14 14 14 14 12 11 10 8 6 3 358 352 349
252 249 244 239 237 236 236 236 235 236 239 238 241 241 238 240 237 231 230 224 215 217 218 223 226 216 206 208 222 222 221 229 223 209 209 211 212 212 208 213 225 225 223 222 221 230 230 206 183 182 217 202 207 277 214 205 233 156 108 108 103 96 91 84 77 52 40 21 8 11 7 6 8 9 9 8 7 5 4 2 359 356 351 346 345
253 252 249 243 238 237 236 235 235 235 236 237 238 239 239 238 232 229 230 218 211 219 221 215 210 208 216 228 230 229 233 232 223 217 213 210 211 212 215 223 222 214 217 228 226 220 210 197 187 181 188 204 257 272 224 211 228 152 110 118 117 111 122 126 79 24 8 344 349 355 354 1 3 2 2 1 359 358 357 355 352 349 345 343 342
254 254 251 247 242 238 237 237 237 236 235 237 235 236 236 233 231 229 229 224 217 214 208 207 213 222 229 228 222 228 234 223 215 217 209 208 216 215 209 212 214 213 223 231 216 205 194 189 193 193 188 199 245 248 222 224 213 158 137 145 147 149 172 187 235 308 320 325 335 340 347 353 352 354 356 354 354 355 355 351 348 346 343 343 343
253 253 251 249 245 241 240 239 239 239 237 237 235 234 232 228 225 222 227 231 222 209 206 212 221 230 228 221 228 238 238 222 209 209 205 210 222 217 208 208 212 219 227 221 204 195 189 188 200 216 213 209 217 222 226 225 191 168 163 166 167 174 193 217 251 285 300 312 325 333 339 342 344 348 347 347 350 351 352 349 347 346 345 346 345
250 249 249 248 245 243 242 241 241 241 239 238 237 236 234 229 221 219 226 225 213 211 213 216 222 230 227 226 233 234 234 233 221 215 215 219 221 217 215 219 221 220 216 206 195 188 187 197 211 218 229 228 211 209 218 206 180 175 174 173 179 190 201 219 250 278 293 303 314 322 328 333 336 339 340 344 348 349 349 347 347 347 347 348 347
249 249 248 247 245 242 242 242 242 242 242 240 238 238 236 234 229 229 227 214 212 218 218 218 223 226 223 224 225 224 234 242 231 222 221 223 225 222 220 222 222 212 201 194 189 188 196 212 222 217 220 222 212 209 207 189 174 177 174 177 185 192 204 220 245 266 281 293 303 309 317 323 326 330 337 343 347 348 347 345 346 348 349 348 347
250 250 250 247 245 242 241 242 242 242 242 239 237 238 236 231 227 231 229 216 217 222 220 219 219 216 215 220 226 233 243 240 227 224 222 222 221 218 214 209 204 200 194 193 195 203 216 219 224 225 216 205 202 205 196 178 175 176 170 182 190 191 205 222 237 255 269 280 289 296 306 314 319 327 336 343 346 344 344 345 347 349 349 348 347
251 249 248 247 245 243 241 241 241 241 241 239 236 234 233 229 223 224 226 224 222 217 212 212 213 214 219 227 235 244 248 233 221 221 219 219 212 205 208 199 193 196 197 202 208 217 221 217 219 219 211 200 193 193 187 178 181 183 177 180 186 195 211 224 229 244 257 266 278 287 298 307 315 326 335 339 339 339 343 345 346 349 348 347 345
254 252 250 249 247 245 242 241 240 241 240 238 236 233 231 228 224 221 217 217 216 212 212 214 220 226 231 238 241 246 248 227 217 216 213 216 207 196 202 197 193 202 208 215 219 220 218 216 213 200 194 198 195 188 183 182 184 188 187 176 179 202 218 223 221 234 245 251 268 279 290 303 311 320 327 330 333 338 341 341 342 344 344 343 339
255 254 253 250 248 245 243 241 240 241 240 237 236 234 232 230 226 222 217 215 214 218 223 225 227 231 236 240 239 245 247 220 210 216 215 214 202 193 200 202 207 216 217 217 215 215 214 207 199 188 183 189 197 193 183 181 184 186 193 191 193 216 225 223 217 221 229 238 257 270 282 295 303 311 317 323 330 334 333 334 335 335 335 333 330
258 254 252 249 247 244 243 242 241 240 240 238 236 235 233 231 226 223 225 225 225 229 231 226 225 229 234 237 238 249 248 216 208 218 212 204 198 198 207 212 218 219 215 214 210 209 204 193 187 185 184 183 189 195 186 180 184 185 189 198 213 230 238 237 227 221 221 229 244 256 270 282 294 303 310 318 322 324 325 326 326 324 324 322 323
257 252 249 249 248 246 243 243 241 239 239 237 236 235 233 229 222 222 226 229 232 235 233 227 228 231 233 237 240 250 246 215 207 211 202 200 202 204 211 214 214 213 211 211 205 198 190 185 184 183 184 185 183 189 187 179 180 179 180 188 207 225 243 253 246 239 233 230 234 241 255 269 285 295 300 308 312 315 319 317 315 313 311 312 315
249 247 247 248 248 247 243 242 241 239 237 236 235 233 232 228 224 224 226 226 227 230 233 233 231 230 233 239 240 243 236 211 201 203 201 203 206 205 210 212 212 213 211 204 194 190 186 185 185 181 180 183 181 185 188 179 169 164 168 178 196 216 237 249 250 249 245 237 232 233 245 260 275 284 291 301 307 310 311 308 305 301 299 302 305
247 242 241 242 243 244 243 241 241 240 237 236 235 234 231 228 225 227 227 225 226 227 230 228 226 229 234 238 238 232 224 208 200 203 202 202 206 207 209 212 215 213 204 194 187 186 187 186 185 181 177 179 179 178 179 176 166 159 162 167 182 211 235 247 252 253 251 251 245 239 247 259 268 276 287 298 302 303 301 296 291 288 289 292 298
251 242 237 236 237 239 240 241 241 241 238 236 235 234 232 230 228 227 226 224 225 226 225 223 225 232 235 234 232 223 217 209 203 204 204 204 206 206 210 213 212 204 194 189 186 186 187 185 183 180 177 180 179 173 170 170 166 162 163 165 175 212 247 263 266 269 270 273 271 260 256 261 266 273 286 296 299 297 294 288 283 281 284 288 295